Regional Weather Roundup
Issued by NWS

Home | Current Version | Previous Version | Graphics & Text | Print | Product List | Glossary On
Versions: 1 2 3 4 5 6 7 8 9 10 11 12 13 14 15 16 17 18 19 20 21 22 23 24 25 26 27 28 29 30 31 32 33 34 35 36 37 38 39 40 41 42 43 44 45 46 47 48 49 50
000
ASUS43 KMKX 222300
RWRWI

WISCONSIN REGIONAL WEATHER ROUNDUP
NATIONAL WEATHER SERVICE MILWAUKEE/SULLIVAN WI
600 PM CDT WED OCT 22 2014

NOTE: "FAIR" INDICATES FEW OR NO CLOUDS BELOW 12,000 FEET WITH NO
SIGNIFICANT WEATHER AND/OR OBSTRUCTIONS TO VISIBILITY.

WIZ001-002-006>008-014>016-023>028-230000-
NORTHWEST WISCONSIN

CITY           SKY/WX    TMP DP  RH WIND       PRES   REMARKS
SUPERIOR ARPT  MOCLDY    56  38  51 S7        30.05F
ASHLAND        MOCLDY    57  30  35 S8        30.09F
HAYWARD        CLEAR     54  31  41 S12G18    30.09F
SIREN          PTCLDY    55  35  47 SE9G22    30.06F
CUMBERLAND     MOCLDY    52  32  46 SE10      30.10S
RICE LAKE      CLOUDY    55  33  43 SE12G21   30.12F
CHETEK         MOCLDY    55  34  44 SE12      30.12F
LADYSMITH      PTCLDY    54  33  43 SE12      30.16F
EAU CLAIRE     NOT AVBL
MENOMONIE      CLOUDY    57  34  41 SE10      30.12F
NEW RICHMOND   PTCLDY    55  38  53 SE12G17   30.08F
OSCEOLA        PTCLDY    56  39  53 SE12G23   30.09F
$$

WIZ003>005-009-010-017-018-230000-
NORTH CENTRAL WISCONSIN

CITY           SKY/WX    TMP DP  RH WIND       PRES   REMARKS
MANITOWISH WTR CLEAR     50  28  41 S8        30.16S
ARBOR VITAE    CLEAR     52  27  37 S9        30.17F
WOODRUFF       CLEAR     52  27  37 S9        30.17F
RHINELANDER    CLEAR     49  28  44 S7        30.20F
EAGLE RIVER    CLEAR     51  23  33 S8        30.18F
LAND O LAKES   CLEAR     51  28  41 SE5       30.19F
PHILLIPS       PTCLDY    53  31  44 S9        30.16S
TOMAHAWK       CLEAR     50  31  48 CALM      30.20F
MEDFORD        CLEAR     50  32  49 SE10      30.19S
MERRILL        CLEAR     52  32  47 S7        30.21F
$$

WIZ029-030-035-036-043>047-230000-
CENTRAL WISCONSIN

CITY           SKY/WX    TMP DP  RH WIND       PRES   REMARKS
WAUSAU         CLEAR     50  34  54 SE9       30.20F
MOSINEE        CLEAR     50  36  57 SE6       30.23F
MARSHFIELD     CLEAR     52  34  50 SE8       30.19F
STEVENS POINT  CLEAR     52  33  49 S5        30.23S
WAUPACA        CLEAR     55  38  54 SE6       30.24F
WAUTOMA        NOT AVBL
WISC RAPIDS    CLEAR     53  35  50 SE3       30.23F
CAMP DOUGLAS   NOT AVBL
$$

WIZ011>013-019>022-031-037>040-048>050-230000-
NORTHEAST WISCONSIN

CITY           SKY/WX    TMP DP  RH WIND       PRES   REMARKS
ANTIGO         CLEAR     46  34  64 S8        30.24S
SHAWANO        CLEAR     52  38  59 SE7       30.26F
OCONTO         PTCLDY    46  39  78 SE9       30.28S
STURGEON BAY   CLEAR     43  34  70 SE6       30.29F
GREEN BAY      CLEAR     47  40  76 E8        30.26F
MANITOWOC      NOT AVBL
APPLETON       PTCLDY    52  37  58 VRB6      30.25F
CLINTONVILLE   CLEAR     50  36  57 SE6       30.25F
OSHKOSH        CLEAR     50  41  71 E3        30.24F
$$

WIZ032>034-041-042-053>061-230000-
SOUTHWEST WISCONSIN

CITY           SKY/WX    TMP DP  RH WIND       PRES   REMARKS
LA CROSSE      MOCLDY    57  37  47 SE9       30.16F
SPARTA         CLEAR     56  33  41 SE6       30.19F
VIROQUA        CLEAR     55  35  46 SE9       30.18F
BOSCOBEL       CLEAR     58  37  45 CALM      30.20F
PRAIRIE DU CHI CLEAR     57  37  48 E7        30.18F
PLATTEVILLE    CLEAR     56  37  48 SE6       30.22S
$$

WIZ056-057-062-063-064-067-068-230000-
SOUTH CENTRAL WISCONSIN

CITY           SKY/WX    TMP DP  RH WIND       PRES   REMARKS
REEDSBURG      CLEAR     55  37  49 SE5       30.21F
BARABOO/DELLS  CLEAR     55  35  47 E8        30.21F
LONE ROCK      NOT AVBL
MINERAL POINT  CLEAR     55  34  44 SE7       30.21F
MADISON        PTCLDY    55  35  47 S7        30.23F
MIDDLETON      CLEAR     57  33  39 S8        30.23S
WATERTOWN      CLEAR     54  37  54 SE3       30.24F
MONROE         CLEAR     54  37  54 SE7       30.22F
JANESVILLE     CLEAR     55  36  47 SE7       30.23F
$$

WIZ051-052-058>065-066-070>072-230000-
SOUTHEAST WISCONSIN

CITY           SKY/WX    TMP DP  RH WIND       PRES   REMARKS
MILWAUKEE      PTCLDY    46  38  73 SE9       30.29S
WAUKESHA       CLEAR     46  37  71 E7        30.27F
MILWAUKEE/TIMM NOT AVBL
RACINE         CLEAR     46  38  73 SE6       30.30F
BURLINGTON     CLEAR     49  39  68 E8        30.26S
KENOSHA        CLEAR     46  39  76 SE8       30.28F
FOND DU LAC    CLEAR     50  39  66 SE10      30.24F
SHEBOYGAN      CLEAR     45  37  73 SE6       30.28F
WEST BEND      CLEAR     45  36  70 E7        30.27F
JUNEAU         CLEAR     52  39  60 SE6       30.25F
$$

LSZ147-162-230000-
LAKE SUPERIOR

STATION/POSITION TIME  TEMP    WIND        PRES    WAVE
                       AIR SEA DIR/SP/G            HT/PER
                 (UTC) (F)     (DEG/KT/KT) (MB)    (FT/S)
W MID LAKE BUOY  2150   47 46   90/ 10/ 10 1021.3F   1/ 3
DEVILS ISLAND    2200   48      80/ 12/ 13 1020.1F
PORT WING        2240   59     160/  3/  6 1018.3F
SAXON HARBOR     2200   62     200/  6/ 14 1019.6F
$$

LMZ867-665-643>646-230000-
LAKE MICHIGAN

STATION/POSITION TIME  TEMP    WIND        PRES    WAVE
                       AIR SEA DIR/SP/G            HT/PER
                 (UTC) (F)     (DEG/KT/KT) (MB)    (FT/S)
CHAMBERS ISLAND  2200   46     130/  6/  9 1025.7F
N MID LAKE BUOY  2150   42 51  140/  6/  8 1027.1F   1
NORTHPORT PIER   2200   44     130/  9/ 11 1026.1F
SISTER BAY       2242          150/  6/  8   N/A
KEWAUNEE LAKESHO 2200   45     140/  6/ 10 1025.0F
SHEBOYGAN LAKESH 2200   47 50  130/ 11/ 12 1026.3F
PORT WASHINGTON  2200   49     150/  8/ 11 1026.1F
ATWATER BUOY     2200   49     130/ 10/ 14 1026.3F
MILWAUKEE LAKESH 2200   48     130/ 10/ 11   N/A
S MID LAKE BUOY  2150   47 55   50/  4/  6 1026.7F   1
KENOSHA   LAKESH 2200   52     140/  7/  9 1025.4F
$$

TC  - TEMPERATURE IN CELSIUS
VSB - VISIBILITY IN STATUTE MILES
WCI - WIND CHILL INDEX
HX  - HEAT INDEX




USA.gov is the U.S. government's official web portal to all federal, state and local government web resources and services.